Weather Roundup
Issued by NWS Chicago, IL

Home | Current Version | Previous Version | Text Only | Print | Product List | Glossary On
Versions: 1 2 3 4 5 6 7 8 9 10 11 12 13 14 15 16 17 18 19 20 21 22 23 24 25 26 27 28 29 30 31 32 33 34 35 36 37 38 39 40 41 42 43 44 45 46 47 48 49 50
531
NZUS59 KLOT 100508
HRRLOT

CHICAGO AREA WEATHER ROUNDUP
NATIONAL WEATHER SERVICE CHICAGO/ROMEOVILLE IL
1100 PM CST TUE FEB 09 2016

NOTE: "FAIR" INDICATES FEW OR NO CLOUDS BELOW 12,000 FEET WITH NO
SIGNIFICANT WEATHER AND/OR OBSTRUCTIONS TO VISIBILITY.

* THESE STATIONS ARE NOT UNDER NWS QUALITY CONTROL. THEY ALSO MAY NOT
  REPORT WEATHER SUCH AS PRECIPITATION OR FOG.

ILZ005-006-012>014-019>023-100600-
NORTHEAST ILLINOIS

CITY           SKY/WX    TMP DP  RH WIND       PRES   REMARKS
OHARE          CLOUDY    14   6  70 NW13      29.94S WCI   0
MIDWAY         FLURRIES  15   5  64 NW14      29.95S WCI   0
AURORA         CLOUDY    15   6  67 NW15      29.97S WCI   0
LANSING*       CLOUDY    15   8  73 NW10      29.95S WCI   2
JOLIET*        CLOUDY    16   7  69 NW10G17   29.98S WCI   3
WAUKEGAN       CLOUDY    14   7  73 NW10G18   29.92S WCI   1
DUPAGE AIRPORT CLOUDY    14   4  64 NW15      29.95S WCI  -1
WHEELING       CLOUDY    14   6  70 NW15      29.95S WCI  -1
KANKAKEE*      CLOUDY    15   8  73 NW13      29.98S WCI   1
MORRIS*        CLOUDY    15   6  65 NW13G18   29.95S WCI   2
LEWIS AIRPORT* CLOUDY    14   6  70 NW13G20   29.96F WCI   0
$$

WIZ051-052-058>065-066-070>072-100600-
SOUTHEAST WISCONSIN

CITY           SKY/WX    TMP DP  RH WIND       PRES   REMARKS
MILWAUKEE      FLURRIES  15   8  73 NW13      29.93R WCI   1
KENOSHA*       CLOUDY    15   5  64 NW13      29.93R WCI   1
RACINE*        LGT SNOW  15   8  73 NW8G18    29.94R WCI   4
BURLINGTON     CLOUDY    12   3  66 NW14G23   29.94S WCI  -3
WAUKESHA       PTCLDY    10   3  72 NW13      29.93S WCI  -5
WEST BEND      PTCLDY    12   3  67 CALM      29.91S
$$

INZ001>003-010>013-019-020-100600-
NORTHWEST INDIANA

CITY           SKY/WX    TMP DP  RH WIND       PRES   REMARKS
GARY*          FLURRIES  17   8  65 W13G18    29.95S WCI   4
MICHIGAN CITY* NOT AVBL
RENSSELAER*    NOT AVBL
VALPARAISO     LGT SNOW  15  11  83 W16       29.91S WCI  -1
$$

LMZ740>746-100600-
SOUTHERN LAKE MICHIGAN

STATION/POSITION TIME  SKY/WX   TEMP WIND        PRES    VSBY
                                AIR  DIR/SP/G
                 (UTC)          (F)  (DEG/KT/KT) (MB)    (MI)
HARRISON CRIB    0400            17  300/ 21/ 24   N/A
BURNHAM HARBOR   0500            16  290/ 14/ 17   N/A
CALUMET HARBOR   0400            15  270/  9/ 16 1013.3S
BURNS HARBOR     0422            19  300/ 20/ 23 1013.2F
MICHIGAN CITY    0400            19  270/ 28/ 31   N/A
$$

ABBREVIATIONS USED IN REMARKS
   TC - TEMPERATURE IN CELSIUS
  WCI - WIND CHILL INDEX
   HX - HEAT INDEX
  VSB - VISIBILITY
$$




USA.gov is the U.S. government's official web portal to all federal, state and local government web resources and services.